Weather reports worldwide

Advertisment
Hoherodskopf/Vogelsberg, Germany (10534): temperature & dewpoint: 16.06.2018 20:00:00 - 22.06.2018 20:00:00 (CEST)Hoherodskopf/Vogelsberg, Germany (10534): temperature 5cm & temperature -5cm: 16.06.2018 20:00:00 - 22.06.2018 20:00:00 (CEST)Hoherodskopf/Vogelsberg, Germany (10534): temperature -20cm & temperature -100cm: 16.06.2018 20:00:00 - 22.06.2018 20:00:00 (CEST)Hoherodskopf/Vogelsberg, Germany (10534): wind speed & gusts: 16.06.2018 20:00:00 - 22.06.2018 20:00:00 (CEST)Hoherodskopf/Vogelsberg, Germany (10534): wind direction: 16.06.2018 20:00:00 - 22.06.2018 20:00:00 (CEST)Hoherodskopf/Vogelsberg, Germany (10534): reduced air pressure: 16.06.2018 20:00:00 - 22.06.2018 20:00:00 (CEST)Hoherodskopf/Vogelsberg, Germany (10534): visibility: 16.06.2018 20:00:00 - 22.06.2018 20:00:00 (CEST)Hoherodskopf/Vogelsberg, Germany (10534): sunshine duration: 16.06.2018 20:00:00 - 22.06.2018 20:00:00 (CEST)Hoherodskopf/Vogelsberg, Germany (10534): precipitation: 16.06.2018 20:00:00 - 22.06.2018 20:00:00 (CEST)
Date & Time tt [°C] td [°C] tt 5cm [°C] tt -5cm [°C] tt -20cm [°C] tt -100cm [°C] ff [km/h] ff [kn] fx [km/h] fx [kn] dd ppp [hPa] vv [km] sd [min] rr [mm]
22.06.2018 20:00:00 9,2 7,6 9,0 13,6 15,6 13,2 20 11 32 17 WNW 1024,6 34 52 0,0
22.06.2018 19:00:00 8,4 8,4 10,0 12,8 15,7 13,2 17 9 43 23 NW 1024,9 7 1 0,8
22.06.2018 18:00:00 9,5 5,3 9,9 14,1 15,7 13,2 24 13 45 25 WNW 1024,3 65 6 0,0
22.06.2018 17:00:00 9,8 5,7 11,7 13,7 15,7 13,2 23 13 39 21 WNW 1023,8 50 1 0,0
22.06.2018 16:00:00 9,8 5,6 12,2 14,0 15,8 13,2 25 13 49 26 WNW 1023,6 43 3 0,0
22.06.2018 15:00:00 9,8 5,4 11,8 13,8 15,9 13,2 24 13 42 23 WNW 1023,3 47 1 0,0
22.06.2018 14:00:00 8,4 5,1 9,7 15,1 16,0 13,2 28 15 44 24 WNW 1023,6 54 10 0,0
22.06.2018 13:00:00 8,0 6,0 9,2 14,6 16,1 13,2 29 15 58 31 WNW 1023,1 48 36 0,2
22.06.2018 12:00:00 7,0 6,9 9,4 11,6 16,2 13,2 28 15 43 23 WNW 1023,2 5 8 0,7
22.06.2018 11:00:00 6,1 5,4 6,3 10,4 16,4 13,2 21 11 32 17 W 1023,3 15 0 0,0
22.06.2018 10:00:00 5,5 5,0 5,7 10,4 16,6 13,2 23 13 44 24 W 1023,3 14 0 0,2
22.06.2018 09:00:00 5,7 4,6 6,3 10,4 16,8 13,2 26 14 47 25 W 1023,0 18 0 0,0
22.06.2018 08:00:00 5,0 4,9 5,7 10,2 17,0 13,2 21 11 33 18 W 1022,8 7 0 0,0
22.06.2018 07:00:00 4,4 4,3 5,0 10,1 17,2 13,2 20 11 29 16 W 1023,2 8 0 0,0
22.06.2018 06:00:00 4,5 4,0 4,9 9,9 17,4 13,1 18 10 27 14 W 1023,5 15 0 0,0
22.06.2018 05:00:00 4,6 3,6 4,5 9,6 17,6 13,1 19 10 33 18 WNW 1023,4 19 0 0,0
22.06.2018 04:00:00 4,7 3,6 3,7 10,5 17,8 13,1 22 12 31 17 WNW 1023,5 29 0 0,0
22.06.2018 03:00:00 6,2 4,4 6,2 11,5 18,0 13,1 18 10 30 16 WNW 1023,2 40 0 0,0
22.06.2018 02:00:00 6,3 4,3 6,2 11,7 18,2 13,1 19 11 35 19 NW 1023,0 44 0 0,0
22.06.2018 01:00:00 6,3 3,8 5,4 12,1 18,4 13,1 25 13 45 24 NW 1023,2 50 0 0,0
22.06.2018 00:00:00 7,0 3,3 5,9 13,0 18,5 13,1 26 14 41 22 NW 1022,7 66 0 0,0
21.06.2018 23:00:00 7,7 2,4 6,0 14,3 18,6 13,1 18 10 31 17 NW 1022,3 66 0 0,0
21.06.2018 22:00:00 8,8 1,5 7,0 15,8 18,6 13,1 23 13 45 25 NW 1021,4 58 24 0,0
21.06.2018 21:00:00 10,6 1,5 10,0 18,1 18,5 13,1 32 17 47 26 NW 1020,3 55 23 0,0
21.06.2018 20:00:00 11,5 2,3 11,3 21,0 18,5 13,1 35 19 51 28 NW 1019,4 54 42 0,0
21.06.2018 19:00:00 13,9 2,3 16,2 23,2 18,4 13,1 29 16 51 28 NW 1018,2 35 59 0,0
21.06.2018 18:00:00 14,7 2,2 18,0 24,2 18,3 13,1 32 17 48 26 WNW 1017,2 26 49 0,0
21.06.2018 17:00:00 16,2 4,0 20,5 24,7 18,3 13,1 29 16 48 26 WNW 1016,3 21 49 0,0
21.06.2018 16:00:00 15,5 4,1 20,0 24,0 18,2 13,1 37 20 58 31 WNW 1016,2 39 45 0,0
21.06.2018 15:00:00 15,1 7,5 17,2 22,8 18,3 13,1 35 19 65 35 WNW 1015,6 27 37 0,0
21.06.2018 14:00:00 15,7 10,7 18,6 20,2 18,3 13,1 37 20 61 33 WNW 1014,8 17 22 0,1
21.06.2018 13:00:00 12,6 12,6 13,1 19,1 18,3 13,1 24 13 56 30 WNW 1016,0 3,3 1 0,0
21.06.2018 12:00:00 14,9 12,4 16,0 20,8 18,3 13,1 33 18 58 31 W 1014,6 26 5 0,0
21.06.2018 11:00:00 16,7 12,2 18,3 21,7 18,4 13,1 27 14 44 24 W 1013,8 42 48 0,0
21.06.2018 10:00:00 16,5 11,6 18,9 20,3 18,5 13,1 24 13 39 21 WSW 1013,5 27 50 0,0
21.06.2018 09:00:00 15,6 13,3 19,2 18,5 18,6 13,1 23 12 35 19 W 1014,3 17 55 0,0
21.06.2018 08:00:00 15,3 12,7 16,7 16,7 18,8 13,1 19 10 29 16 WNW 1014,5 22 59 0,0
21.06.2018 07:00:00 15,1 12,3 13,8 15,9 19,0 13,1 13 7 18 10 W 1014,6 28 36 0,0
21.06.2018 06:00:00 16,4 11,8 13,4 16,0 19,1 13,1 8 4 17 9 W 1014,4 40 0 0,0
21.06.2018 05:00:00 16,6 12,2 13,7 16,6 19,3 13,1 13 7 17 9 NW 1015,1 40 0 0,0
21.06.2018 04:00:00 17,6 12,4 14,5 17,2 19,4 13,1 9 5 15 8 W 1015,5 40 0 0,0
21.06.2018 03:00:00 18,2 12,5 15,2 17,7 19,5 13,1 10 6 15 8 WSW 1015,7 11 0 0,0
21.06.2018 02:00:00 19,3 12,3 14,4 18,5 19,6 13,1 8 4 10 6 WSW 1016,0 11 0 0,0
21.06.2018 01:00:00 19,7 12,2 14,7 19,3 19,6 13,1 8 4 13 7 WSW 1016,4 10 0 0,0
21.06.2018 00:00:00 19,8 12,4 15,7 20,4 19,6 13,1 8 5 13 7 WNW 1017,0 43 0 0,0
20.06.2018 23:00:00 20,2 12,2 16,3 22,0 19,4 13,1 9 5 13 7 W 1017,1 55 0 0,0
20.06.2018 22:00:00 20,3 13,1 16,9 24,1 19,3 13,1 7 4 11 6 W 1017,2 45 31 0,0
20.06.2018 21:00:00 21,3 14,1 20,2 27,1 19,0 13,1 6 4 12 7 WSW 1016,9 48 60 0,0
20.06.2018 20:00:00 22,4 13,0 23,9 29,6 18,7 13,1 8 5 17 9 WSW 1016,9 45 60 0,0
20.06.2018 19:00:00 22,5 13,0 25,8 31,5 18,3 13,1 14 8 25 14 WSW 1017,3 29 60 0,0
20.06.2018 18:00:00 22,9 13,0 27,3 33,2 17,9 13,1 13 7 28 15 W 1017,6 56 40 0,0
20.06.2018 17:00:00 22,5 11,9 28,9 34,3 17,5 13,1 13 7 24 13 WSW 1018,3 41 60 0,0
20.06.2018 16:00:00 21,8 13,1 29,5 34,4 17,1 13,1 12 7 22 12 W 1018,8 33 60 0,0
20.06.2018 15:00:00 22,5 15,0 30,2 33,4 16,8 13,1 9 5 22 12 WSW 1019,0 44 60 0,0
20.06.2018 14:00:00 21,0 13,6 29,0 31,8 16,6 13,1 11 6 27 14 W 1019,9 33 59 0,0
20.06.2018 13:00:00 20,4 14,0 28,5 29,1 16,4 13,1 10 5 21 11 W 1020,7 36 59 0,0
20.06.2018 12:00:00 19,4 12,8 27,6 26,7 16,4 13,1 10 6 20 11 WSW 1021,4 41 60 0,0
20.06.2018 11:00:00 18,2 12,3 25,3 23,2 16,4 13,1 12 7 19 11 WSW 1021,8 31 58 0,0
20.06.2018 10:00:00 17,6 12,3 24,1 20,4 16,4 13,1 10 5 19 10 SSW 1022,1 30 58 0,0
20.06.2018 09:00:00 16,3 11,6 20,1 17,3 16,5 13,1 9 5 14 8 SSW 1022,6 23 60 0,0
20.06.2018 08:00:00 16,1 12,2 18,2 14,5 16,7 13,1 5 3 8 4 SSE 1022,6 35 60 0,0
20.06.2018 07:00:00 14,6 12,3 12,0 12,8 16,8 13,1 5 3 8 4 ESE 1023,2 22 45 0,0
20.06.2018 06:00:00 14,2 11,3 10,1 12,8 16,9 13,1 2 1 7 4 ENE 1023,5 34 0 0,0
20.06.2018 05:00:00 14,7 10,6 10,3 13,3 17,0 13,1 4 2 9 5 NNW 1023,4 35 0 0,0
20.06.2018 04:00:00 14,5 10,9 11,8 13,8 17,1 13,1 8 4 14 8 N 1023,7 36 0 0,0
20.06.2018 03:00:00 14,7 11,1 12,7 14,4 17,2 13,1 9 5 16 9 N 1023,9 43 0 0,0
20.06.2018 02:00:00 15,0 11,1 13,2 15,1 17,3 13,1 9 5 14 8 N 1024,0 31 0 0,0
20.06.2018 01:00:00 15,0 11,2 13,8 15,2 17,4 13,1 13 7 19 10 NNW 1024,1 36 0 0,0
20.06.2018 00:00:00 15,1 11,3 13,5 15,7 17,4 13,1 14 8 20 11 N 1024,2 18 0 0,0
19.06.2018 23:00:00 14,5 11,9 12,9 16,5 17,4 13,1 16 9 20 11 NNW 1024,3 22 0 0,0
19.06.2018 22:00:00 14,4 13,5 13,1 17,8 17,4 13,1 13 7 16 9 NNW 1024,4 19 21 0,0
19.06.2018 21:00:00 15,5 13,8 14,8 19,4 17,3 13,1 11 6 22 12 NW 1023,8 27 17 0,0
19.06.2018 20:00:00 16,6 13,9 17,4 20,6 17,2 13,1 7 4 18 10 WNW 1023,6 47 0 0,0
19.06.2018 19:00:00 17,1 13,5 19,0 21,6 17,2 13,1 13 7 21 12 W 1023,5 47 10 0,0
19.06.2018 18:00:00 17,1 13,9 18,6 21,1 17,0 13,1 12 6 19 11 W 1023,5 44 0 0,0
19.06.2018 17:00:00 16,8 13,5 18,5 21,3 16,9 13,1 10 6 18 10 WSW 1023,7 45 0 0,0
19.06.2018 16:00:00 16,6 13,2 18,3 22,3 16,8 13,1 11 6 18 10 SW 1023,7 46 0 0,0
19.06.2018 15:00:00 16,8 13,3 19,1 22,9 16,6 13,1 13 7 19 11 WSW 1023,6 44 0 0,0
19.06.2018 14:00:00 16,4 12,7 18,6 24,5 16,4 13,1 12 7 25 14 SSW 1023,8 46 4 0,0
19.06.2018 13:00:00 17,1 13,6 22,3 24,3 16,3 13,1 11 6 23 13 SW 1023,4 44 12 0,0
19.06.2018 12:00:00 16,3 12,2 22,9 24,7 16,2 13,1 14 7 22 12 WSW 1023,4 36 36 0,0
19.06.2018 11:00:00 16,3 13,1 23,9 22,6 16,3 13,1 13 7 19 11 WSW 1023,1 22 48 0,0
19.06.2018 10:00:00 14,6 12,5 20,0 19,3 16,3 13,1 11 6 18 10 W 1023,5 23 47 0,0
19.06.2018 09:00:00 13,1 12,4 15,3 16,4 16,4 13,1 11 6 18 10 W 1023,8 10 8 0,0
19.06.2018 08:00:00 12,4 12,4 13,3 15,1 16,4 13,0 14 7 23 12 W 1023,6 3,4 0 0,0
19.06.2018 07:00:00 12,7 12,7 13,1 14,8 16,5 13,0 15 8 27 15 W 1023,1 0,1 0 0,0
19.06.2018 06:00:00 12,8 12,8 13,0 14,8 16,6 13,0 16 9 26 14 WSW 1022,6 0,1 0 0,0
19.06.2018 05:00:00 12,9 12,9 13,1 15,0 16,7 13,0 14 7 23 12 WSW 1022,3 0,3 0 0,0
19.06.2018 04:00:00 13,2 12,9 13,4 15,1 16,7 13,0 14 7 21 12 WSW 1022,3 10 0 0,0
19.06.2018 03:00:00 13,7 12,7 13,7 15,2 16,8 13,0 16 9 26 14 SW 1022,2 19 0 0,0
19.06.2018 02:00:00 13,9 12,5 13,9 15,3 16,9 13,0 13 7 26 14 SW 1022,3 26 0 0,0
19.06.2018 01:00:00 14,1 12,2 14,0 15,3 16,9 13,0 13 7 22 12 SW 1022,3 28 0 0,0
19.06.2018 00:00:00 14,1 11,8 13,3 15,5 16,9 13,0 13 7 20 11 SW 1022,4 37 0 0,0
18.06.2018 23:00:00 14,2 11,5 13,2 16,3 16,9 13,0 13 7 21 11 SW 1022,2 40 0 0,0
18.06.2018 22:00:00 14,6 11,4 14,1 17,4 16,8 13,0 13 7 18 10 SW 1021,8 42 9 0,0
18.06.2018 21:00:00 15,2 11,1 14,8 19,0 16,7 13,0 14 8 26 14 SW 1021,3 50 1 0,0
18.06.2018 20:00:00 15,8 11,0 16,5 20,5 16,6 13,0 16 8 25 14 SW 1021,3 52 0 0,0
18.06.2018 19:00:00 16,1 11,0 17,7 21,9 16,5 13,0 17 9 28 15 SW 1021,1 59 21 0,0
18.06.2018 18:00:00 16,4 10,8 19,2 23,5 16,4 13,0 17 9 27 15 SW 1021,0 45 32 0,0
18.06.2018 17:00:00 16,0 10,6 18,9 22,2 16,2 13,0 16 9 27 15 WSW 1021,6 61 7 0,0
18.06.2018 16:00:00 15,4 10,2 17,8 22,1 16,1 13,0 17 9 32 18 SW 1021,8 63 7 0,0
18.06.2018 15:00:00 15,8 10,4 18,9 21,0 16,0 13,0 16 9 26 14 WSW 1021,4 48 0 0,0
18.06.2018 14:00:00 14,8 9,7 17,1 21,4 16,0 13,0 18 10 29 15 SW 1021,9 39 5 0,0
18.06.2018 13:00:00 15,4 10,9 19,9 20,8 15,9 13,0 13 7 22 12 SW 1021,5 32 8 0,0
18.06.2018 12:00:00 14,1 10,0 17,2 19,7 15,9 13,0 16 8 24 13 WSW 1021,9 33 13 0,0
18.06.2018 11:00:00 13,0 9,7 14,6 18,7 16,0 13,0 13 7 31 17 W 1022,2 33 29 0,0
18.06.2018 10:00:00 13,6 9,1 18,2 16,5 16,1 13,0 15 8 24 13 WSW 1021,7 43 20 0,0
18.06.2018 09:00:00 11,7 9,3 14,1 14,6 16,2 13,0 11 6 16 9 SW 1022,1 34 1 0,0
18.06.2018 08:00:00 11,0 8,2 12,6 13,0 16,3 13,0 11 6 16 9 SW 1021,9 38 19 0,0
18.06.2018 07:00:00 10,5 7,9 10,9 12,3 16,5 13,0 9 5 13 7 SW 1021,7 38 5 0,0
18.06.2018 06:00:00 10,2 7,3 9,7 12,0 16,7 13,0 9 5 14 8 W 1021,9 34 0 0,0
18.06.2018 05:00:00 10,3 7,2 9,2 11,9 16,8 13,0 9 5 14 8 W 1021,4 39 0 0,0
18.06.2018 04:00:00 9,7 7,2 9,0 11,7 16,9 13,0 11 6 21 11 WNW 1021,8 32 0 0,0
18.06.2018 03:00:00 9,7 7,1 8,1 12,1 17,1 13,0 16 9 24 13 NW 1021,9 33 0 0,0
18.06.2018 02:00:00 9,7 7,1 8,5 13,0 17,2 13,0 20 11 29 16 NW 1021,4 36 0 0,0
18.06.2018 01:00:00 10,5 8,5 9,5 14,1 17,3 13,0 19 10 25 14 WNW 1021,0 37 0 0,0
18.06.2018 00:00:00 11,3 8,8 11,1 15,0 17,3 13,0 18 10 29 16 WNW 1020,8 36 0 0,0
17.06.2018 23:00:00 11,8 10,8 11,4 15,8 17,3 13,1 12 6 21 11 WNW 1019,8 20 0 0,0
17.06.2018 22:00:00 12,5 10,5 12,1 16,7 17,3 13,1 17 9 29 16 NW 1019,5 28 0 0,0
17.06.2018 21:00:00 13,7 10,2 13,7 18,2 17,3 13,1 16 9 23 12 WNW 1018,8 42 0 0,0
17.06.2018 20:00:00 14,2 9,9 14,3 19,2 17,2 13,1 16 8 27 14 WNW 1018,3 39 0 0,0
17.06.2018 19:00:00 15,2 9,6 15,9 20,6 17,0 13,1 18 10 29 16 W 1017,8 52 0 0,0
17.06.2018 18:00:00 16,1 9,4 17,2 22,4 16,8 13,1 15 8 29 16 W 1017,1 58 0 0,0
17.06.2018 17:00:00 16,8 8,6 19,3 24,9 16,7 13,1 19 10 34 18 WSW 1016,9 57 39 0,0
17.06.2018 16:00:00 16,7 9,0 21,4 25,1 16,5 13,1 22 12 34 18 WSW 1016,8 68 42 0,0
17.06.2018 15:00:00 16,7 9,0 21,6 24,7 16,4 13,1 18 10 30 16 WSW 1016,9 56 33 0,0
17.06.2018 14:00:00 17,5 10,2 25,2 23,4 16,3 13,1 17 9 29 16 WSW 1016,6 69 20 0,0
17.06.2018 13:00:00 15,0 8,8 18,5 22,8 16,2 13,1 17 9 29 16 WSW 1017,6 63 25 0,0
17.06.2018 12:00:00 13,9 8,9 16,5 21,2 16,2 13,1 16 8 29 16 WSW 1017,9 58 26 0,0
17.06.2018 11:00:00 14,6 8,3 19,7 20,1 16,2 13,1 17 9 29 15 W 1017,4 62 48 0,0
17.06.2018 10:00:00 13,6 8,7 18,2 17,9 16,3 13,1 18 10 32 17 W 1017,7 44 54 0,0
17.06.2018 09:00:00 12,8 9,4 16,0 16,1 16,4 13,1 18 10 32 17 WNW 1017,6 21 37 0,0
17.06.2018 08:00:00 12,0 11,5 13,5 14,6 16,5 13,1 20 11 30 16 WNW 1017,2 5 2 0,0
17.06.2018 07:00:00 11,8 11,8 12,2 14,2 16,6 13,1 16 9 26 14 WNW 1016,9 0,1 0 0,0
17.06.2018 06:00:00 12,0 12,0 12,1 14,0 16,8 13,1 15 8 26 14 WNW 1016,5 0,1 0 0,0
17.06.2018 05:00:00 12,5 12,5 12,5 13,9 16,9 13,1 18 10 24 13 WNW 1016,0 0,1 0 0,0
17.06.2018 04:00:00 12,4 12,4 11,2 13,7 17,0 13,1 11 6 18 10 NW 1016,0 3,1 0 0,0
17.06.2018 03:00:00 13,2 12,0 11,9 14,2 17,1 13,1 15 8 19 10 WNW 1015,6 28 0 0,0
17.06.2018 02:00:00 14,1 11,8 12,0 14,8 17,2 13,1 12 7 22 12 NW 1015,6 30 0 0,0
17.06.2018 01:00:00 14,5 11,7 13,2 15,5 17,2 13,1 14 8 39 21 WNW 1015,6 22 0 0,0
17.06.2018 00:00:00 17,1 10,8 14,6 16,0 17,2 13,1 13 7 18 10 SW 1014,7 36 0 0,0
16.06.2018 23:00:00 17,1 10,2 14,1 16,9 17,2 13,1 10 6 14 8 SSW 1014,7 31 0 0,0
16.06.2018 22:00:00 17,2 10,2 14,0 18,3 17,1 13,1 8 4 12 6 SSW 1014,5 33 16 0,0
16.06.2018 21:00:00 17,5 10,7 15,7 20,1 17,0 13,1 4 2 14 8 WNW 1014,1 33 19 0,0
16.06.2018 20:00:00 17,1 11,6 16,6 22,3 16,8 13,1 11 6 21 11 WNW 1014,2 36 22 0,0

tt = temperature
td = dewpoint
tt 5cm = temperature 5cm
tt -5cm = temperature -5cm
tt -20cm = temperature -20cm
tt -100cm = temperature -100cm
ff = wind speed
fx = gusts
dd = wind direction
ppp = reduced air pressure
vv = visibility
sd = sunshine duration
rr = precipitation

Next stations